Weather History for Prestonsburg, KY

Change the Weather History Date:

Friday, April 5, 2013

  Actual Average (KJKL) Record (KJKL)
Temperature  
Mean Temperature 52 °F 54 °F  
Max Temperature 63 °F 65 °F 87 °F (1988)
Min Temperature 40 °F 44 °F 25 °F (1995)
Degree Days  
Heating Degree Days 14 12  
Month to date heating degree days 62  
Since 1 July heating degree days 3915  
Cooling Degree Days 0 1  
Month to date cooling degree days 5  
Year to date cooling degree days 12  
Growing Degree Days 2 (Base 50)    
Moisture  
Dew Point 35 °F    
Average Humidity 64    
Maximum Humidity 100    
Minimum Humidity 25    
Precipitation  
Precipitation 0.00 in 0.12 in 0.42 in (1993)
Month to date precipitation 0.62  
Year to date precipitation 12.10  
Snow  
Snow 0.00 in 0.00 in - ()
Month to date snowfall 0.3  
Since 1 July snowfall 22.8  
Snow Depth -    
Sea Level Pressure  
Sea Level Pressure 30.02 in    
Wind  
Wind Speed 3 mph (NNW)    
Max Wind Speed 10 mph    
Max Gust Speed 20 mph    
Visibility 7 miles    
Events Fog    
T = Trace of Precipitation, MM = Missing Value Source: NWS Daily Summary

Daily Weather History Graph

Daily Weather History Graph

Search for Another Location

Airport:

Trip Planner

Search our weather history database for the weather conditions in past years. The results will help you decide how hot, cold, wet, or windy it might be!

Date:

Astronomy

Apr. 05, 2013 Rise Set
Actual Time 7:09 AM EDT 7:57 PM EDT
Civil Twilight 6:42 AM EDT 8:23 PM EDT
Nautical Twilight 6:11 AM EDT 8:55 PM EDT
Astronomical Twilight 5:39 AM EDT 9:28 PM EDT
Moon 4:10 AM EDT (4/5) 3:24 PM EDT (4/5)
Length of Visible Light 13h 41m
Length of Day
12h 47m
Waning Crescent, 24% of the Moon is Illuminated
Apr 5
Waning Crescent
Apr 10
New
Apr 18
First Quarter
Apr 25
Full
May 2
Last Quarter

Hourly Weather History & Observations

Time (EDT) Temp. Windchill Dew Point Humidity Pressure Visibility Wind Dir Wind Speed Gust Speed Precip Events Conditions
12:15 AM 40.5 °F 38.4 °F 40.3 °F 99% 29.99 in 4.0 mi NNE 3.5 mph - N/A   Overcast
12:35 AM 40.5 °F - 40.3 °F 99% 29.99 in 5.0 mi Calm Calm - N/A   Overcast
12:55 AM 40.5 °F - 40.3 °F 99% 29.98 in 5.0 mi Calm Calm - N/A   Overcast
1:15 AM 40.5 °F - 40.3 °F 99% 29.98 in 3.0 mi Calm Calm - N/A   Overcast
1:35 AM 40.3 °F - 40.3 °F 100% 29.98 in 4.0 mi Calm Calm - N/A   Overcast
1:55 AM 40.3 °F - 40.3 °F 100% 29.98 in 7.0 mi Calm Calm - N/A   Overcast
2:15 AM 40.5 °F - 40.3 °F 99% 29.97 in 4.0 mi Calm Calm - N/A   Overcast
2:35 AM 40.3 °F - 40.1 °F 99% 29.97 in 4.0 mi Calm Calm - N/A   Overcast
2:55 AM 40.3 °F 38.2 °F 40.1 °F 99% 29.97 in 5.0 mi SE 3.5 mph - N/A   Overcast
3:15 AM 40.5 °F - 40.3 °F 99% 29.97 in 5.0 mi Calm Calm - N/A   Overcast
3:35 AM 40.6 °F 38.6 °F 40.5 °F 99% 29.98 in 4.0 mi South 3.5 mph - N/A   Overcast
3:55 AM 40.5 °F - 40.3 °F 99% 29.98 in 2.0 mi Calm Calm - N/A   Overcast
4:15 AM 41.0 °F - 40.6 °F 99% 29.98 in 2.5 mi Calm Calm - N/A   Overcast
4:35 AM 40.6 °F - 40.5 °F 99% 29.99 in 5.0 mi Calm Calm - N/A   Overcast
4:55 AM 40.8 °F - 40.6 °F 99% 29.99 in 2.0 mi Calm Calm - N/A   Overcast
5:15 AM 41.0 °F - 40.6 °F 99% 30.00 in 1.2 mi Calm Calm - N/A   Overcast
5:35 AM 41.0 °F - 40.8 °F 99% 30.00 in 1.8 mi Calm Calm - N/A   Overcast
5:55 AM 41.0 °F - 41.0 °F 100% 30.01 in 4.0 mi Calm Calm - N/A   Overcast
6:15 AM 41.0 °F - 41.0 °F 100% 30.01 in 2.0 mi Calm Calm - N/A   Overcast
6:35 AM 40.6 °F - 40.6 °F 100% 30.02 in 1.0 mi Calm Calm - N/A   Overcast
6:55 AM 40.5 °F - 40.5 °F 100% 30.02 in 0.2 mi Calm Calm - N/A Fog Fog
7:15 AM 40.5 °F 38.4 °F 40.5 °F 100% 30.02 in 0.2 mi WNW 3.5 mph - N/A Fog Fog
7:35 AM 40.5 °F - 40.5 °F 100% 30.03 in 0.2 mi Calm Calm - N/A Fog Fog
7:55 AM 40.5 °F - 40.5 °F 100% 30.03 in 0.2 mi Calm Calm - N/A Fog Fog
8:15 AM 40.8 °F - 40.8 °F 100% 30.03 in 0.2 mi Calm Calm - N/A Fog Fog
8:35 AM 40.6 °F - 40.6 °F 100% 30.04 in 0.2 mi Calm Calm - N/A Fog Fog
8:55 AM 40.6 °F - 40.6 °F 100% 30.04 in 4.0 mi Calm Calm - N/A   Overcast
9:15 AM 41.2 °F - 41.2 °F 100% 30.04 in 10.0 mi Calm Calm - N/A   Overcast
9:35 AM 42.1 °F 40.2 °F 41.5 °F 98% 30.04 in 10.0 mi West 3.5 mph - N/A   Mostly Cloudy
9:55 AM 42.8 °F - 41.2 °F 94% 30.04 in 10.0 mi Calm Calm - N/A   Mostly Cloudy
10:15 AM 44.6 °F 42.2 °F 40.6 °F 86% 30.05 in 10.0 mi WSW 4.6 mph - N/A   Scattered Clouds
10:35 AM 46.2 °F 45.0 °F 40.3 °F 80% 30.05 in 10.0 mi WSW 3.5 mph - N/A   Clear
10:55 AM 47.3 °F - 39.6 °F 74% 30.06 in 10.0 mi WSW 5.8 mph - N/A   Clear
11:15 AM 49.3 °F - 37.2 °F 63% 30.06 in 10.0 mi NNW 4.6 mph - N/A   Clear
11:35 AM 50.0 °F - 36.5 °F 60% 30.06 in 10.0 mi WNW 5.8 mph - N/A   Clear
11:55 AM 51.3 °F - 37.0 °F 58% 30.05 in 10.0 mi NW 5.8 mph - N/A   Clear
12:15 PM 52.9 °F - 33.6 °F 48% 30.04 in 10.0 mi NNW 3.5 mph - N/A   Clear
12:35 PM 56.3 °F - 33.8 °F 43% 30.04 in 10.0 mi ENE 4.6 mph - N/A   Clear
12:55 PM 56.5 °F - 31.8 °F 39% 30.03 in 10.0 mi North 6.9 mph - N/A   Clear
1:15 PM 55.4 °F - 30.9 °F 39% 30.02 in 10.0 mi Calm Calm - N/A   Clear
1:35 PM 57.7 °F - 33.4 °F 40% 30.02 in 10.0 mi NNW 5.8 mph - N/A   Clear
1:55 PM 59.0 °F - 30.9 °F 35% 30.01 in 10.0 mi North 8.1 mph - N/A   Clear
2:15 PM 59.0 °F - 28.9 °F 32% 30.01 in 10.0 mi West 5.8 mph - N/A   Clear
2:35 PM 61.0 °F - 30.9 °F 32% 30.01 in 10.0 mi North 5.8 mph 17.3 mph N/A   Clear
2:55 PM 61.0 °F - 30.0 °F 31% 30.00 in 10.0 mi WNW 9.2 mph - N/A   Clear
3:15 PM 61.3 °F - 29.3 °F 30% 29.99 in 10.0 mi North 6.9 mph - N/A   Clear
3:35 PM 61.5 °F - 29.3 °F 30% 29.99 in 10.0 mi NNE 10.4 mph - N/A   Clear
3:55 PM 62.8 °F - 28.6 °F 27% 29.98 in 10.0 mi NNW 3.5 mph - N/A   Clear
4:15 PM 63.0 °F - 27.3 °F 26% 29.98 in 10.0 mi NW 5.8 mph - N/A   Clear
4:35 PM 63.7 °F - 27.5 °F 25% 29.97 in 10.0 mi North 10.4 mph - N/A   Clear
4:55 PM 63.0 °F - 26.6 °F 25% 29.97 in 10.0 mi North 8.1 mph - N/A   Clear
5:15 PM 63.1 °F - 27.3 °F 26% 29.97 in 10.0 mi North 5.8 mph - N/A   Clear
5:35 PM 63.5 °F - 27.3 °F 25% 29.98 in 10.0 mi NW 3.5 mph - N/A   Clear
5:55 PM 62.8 °F - 27.1 °F 26% 29.98 in 10.0 mi NW 10.4 mph - N/A   Clear
6:15 PM 63.0 °F - 27.1 °F 26% 29.99 in 10.0 mi NW 8.1 mph 19.6 mph N/A   Clear
6:35 PM 62.4 °F - 26.6 °F 26% 29.99 in 10.0 mi NW 8.1 mph - N/A   Clear
6:55 PM 61.9 °F - 27.7 °F 27% 29.99 in 10.0 mi NW 5.8 mph - N/A   Clear
7:15 PM 61.3 °F - 27.5 °F 28% 30.00 in 10.0 mi NW 4.6 mph - N/A   Clear
7:35 PM 60.8 °F - 28.0 °F 29% 30.00 in 10.0 mi NW 8.1 mph - N/A   Clear
7:55 PM 59.4 °F - 28.6 °F 31% 30.01 in 10.0 mi NW 3.5 mph - N/A   Clear
8:15 PM 58.3 °F - 28.9 °F 33% 30.02 in 10.0 mi WNW 4.6 mph - N/A   Clear
8:35 PM 58.1 °F - 29.1 °F 33% 30.03 in 10.0 mi NW 3.5 mph - N/A   Clear
8:55 PM 57.2 °F - 29.3 °F 35% 30.03 in 10.0 mi Calm Calm - N/A   Clear
9:15 PM 57.0 °F - 29.3 °F 35% 30.04 in 10.0 mi NW 3.5 mph - N/A   Clear
9:35 PM 55.6 °F - 29.1 °F 36% 30.06 in 10.0 mi North 3.5 mph - N/A   Clear
9:55 PM 56.5 °F - 28.8 °F 35% 30.07 in 10.0 mi NNW 3.5 mph - N/A   Clear
10:15 PM 53.8 °F - 29.3 °F 39% 30.07 in 10.0 mi NNE 5.8 mph - N/A   Clear
10:35 PM 52.2 °F - 30.2 °F 43% 30.08 in 10.0 mi North 5.8 mph - N/A   Clear
10:55 PM 51.6 °F - 30.2 °F 44% 30.09 in 10.0 mi NNE 6.9 mph 17.3 mph N/A   Clear
11:15 PM 50.9 °F - 30.0 °F 45% 30.09 in 10.0 mi NNE 5.8 mph - N/A   Clear
11:35 PM 50.2 °F - 29.8 °F 46% 30.10 in 10.0 mi NNE 8.1 mph - N/A   Clear
11:55 PM 50.0 °F - 29.3 °F 45% 30.10 in 10.0 mi NNE 5.8 mph - N/A   Clear